This demonstration page uses our WeatherBlox Daily Observations layout. Learn more.

Left ArrowRight Arrow

38.88101, -77.10428

Hourly Observations for February 9, 2021

Temp ( °F °C ) Dew Point ( °F °C ) Humidity (%) Winds ( mph kmh ) Pressure ( in mb ) Visibility ( mi km ) Precip ( " mm )
12:52 am 00:52 Cloudy 32 0 23 -5 69 69 E 6 9 30.35 1028 10 16 0.00 0.00
1:52 am 01:52 Cloudy 31 -0.6 23 -5 72 72 ENE 7 11 30.35 1028 10 16 0.00 0.00
2:52 am 02:52 Cloudy 31 -0.6 23 -5 72 72 ENE 5 7 30.32 1027 10 16 0.00 0.00
3:52 am 03:52 Cloudy 32 0 25 -3.9 75 75 NE 5 7 30.29 1026 10 16 0.00 0.00
4:52 am 04:52 Cloudy 32 0 26 -3.3 79 79 NE 3 6 30.28 1025 10 16 0.00 0.00
5:15 am 05:15 Cloudy 32 0 26 -3.3 79 79 ENE 5 7 30.27 1025 10 16 0.00 0.00
5:52 am 05:52 Cloudy 32 0 25 -3.9 75 75 ENE 6 9 30.25 1024 10 16 0.00 0.00
6:42 am 06:42 Cloudy 32 0 26 -3.3 79 79 NE 3 6 30.25 1024 10 16 0.00 0.00
6:52 am 06:52 Cloudy 32 0 26 -3.3 79 79 NNE 3 6 30.24 1024 10 16 0.00 0.00
7:12 am 07:12 Cloudy 32 0 26 -3.3 79 79 NE 3 6 30.24 1024 10 16 0.00 0.00
7:52 am 07:52 Cloudy 34 1.1 27 -2.8 76 76 Calm 30.24 1024 10 16 0.00 0.00
8:48 am 08:48 Cloudy 36 2 28 -2 75 75 Calm 30.23 1024 10 16 0.00 0.00
8:52 am 08:52 Cloudy 36 2.2 28 -2.2 73 73 Calm 30.22 1023 10 16 0.00 0.00
9:52 am 09:52 Mostly Cloudy 40 4.4 31 -0.6 70 70 SSW 5 7 30.20 1023 10 16 0.00 0.00
10:52 am 10:52 Mostly Cloudy 42 5.6 32 0 68 68 S 7 11 30.17 1022 10 16 0.00 0.00
11:52 am 11:52 Mostly Cloudy 46 7.8 33 0.6 61 61 S 5 7 30.13 1020 10 16 0.00 0.00
12:52 pm 12:52 Mostly Cloudy 48 8.9 33 0.6 56 56 E 5 7 30.09 1019 10 16 0.00 0.00
1:52 pm 13:52 Mostly Cloudy 50 10 32 0 50 50 NNW 10 17 30.08 1019 10 16 0.00 0.00
2:52 pm 14:52 Partly Cloudy 48 8.9 31 -0.6 52 52 NNW 9 15 30.09 1019 10 16 0.00 0.00
3:52 pm 15:52 Partly Cloudy 50 10 31 -0.6 48 48 ENE 3 6 30.09 1019 10 16 0.00 0.00
4:52 pm 16:52 Mostly Cloudy 48 8.9 32 0 54 54 N 10 17 30.13 1020 10 16 0.00 0.00
5:52 pm 17:52 Mostly Cloudy 43 6.1 30 -1.1 60 60 N 12 19 30.17 1022 10 16 0.00 0.00
6:52 pm 18:52 Cloudy 42 5.6 30 -1.1 62 62 N 9 15 30.19 1022 10 16 0.00 0.00
7:52 pm 19:52 Cloudy 41 5 28 -2.2 60 60 N 10 17 30.20 1023 10 16 0.00 0.00
8:52 pm 20:52 Cloudy 41 5 27 -2.8 57 57 N 14 22 30.22 1023 10 16 0.00 0.00
9:52 pm 21:52 Cloudy 41 5 27 -2.8 57 57 N 15 24 30.24 1024 10 16 0.00 0.00
10:52 pm 22:52 Cloudy 40 4.4 27 -2.8 60 60 N 8 13 30.25 1024 10 16 0.00 0.00
11:52 pm 23:52 Mostly Cloudy 38 3.3 28 -2.2 68 68 N 7 11 30.25 1025 10 16 0.00 0.00

Powered by AerisWeather